Regional Weather Roundup
Issued by NWS

Home | Current Version | Previous Version | Graphics & Text | Print | Product List | Glossary Off
Versions: 1 2 3 4 5 6 7 8 9 10 11 12 13 14 15 16 17 18 19 20 21 22 23 24 25 26 27 28 29 30 31 32 33 34 35 36 37 38 39 40 41 42 43 44 45 46 47 48 49 50

000
ASUS43 KDTX 231510
RWRMI
MICHIGAN HOURLY REGIONAL WEATHER ROUNDUP
NATIONAL WEATHER SERVICE DETROIT/PONTIAC MI
1000 AM EST SUN NOV 23 2014

NOTE: "FAIR" INDICATES FEW OR NO CLOUDS BELOW 12,000 FEET WITH NO
SIGNIFICANT WEATHER AND/OR OBSTRUCTION TO VISIBILITY.

MIZ047>049-052>055-059>063-066>070-074>076-081>083-231600-
SOUTHEAST LOWER MICHIGAN

CITY           SKY/WX    TMP DP  RH WIND       PRES   REMARKS
ADRIAN         CLOUDY    45  42  89 S7        29.92F
ALMA           CLOUDY    48  46  91 S10G17    29.84R
ANN ARBOR      LGT RAIN  45  42  89 S6        29.91F FOG
BAD AXE        CLOUDY    47  45  93 S12       29.87S
DETROIT CITY   LGT RAIN  46  42  86 S13       29.96R FOG
DETROIT        LGT RAIN  44  43  96 S7        29.96R FOG
FLINT          LGT RAIN  50  43  77 S12G20    29.90R
GROSSE ILE     RAIN      39  37  93 S5        29.95R
HILLSDALE      CLOUDY    46  45  98 SE8       29.88F
HOWELL         CLOUDY    46  43  91 S12       29.91R

CITY           SKY/WX    TMP DP  RH WIND       PRES   REMARKS
JACKSON        LGT RAIN  46  44  93 S8        29.88S FOG
LAMBERTVILLE   DRIZZLE   46  43  87 S5        29.93F
LANSING        CLOUDY    49  44  83 S14G21    29.88R
LAPEER         NOT AVBL
MASON          CLOUDY    47  44  90 S10       29.89R
MONROE         LGT RAIN  45  43  93 S6        29.93S
MT. CLEMENS    LGT RAIN  44  44 100 S8        29.92R FOG
PONTIAC        LGT RAIN  46  43  89 S9        29.92R
PORT HOPE        N/A     47  42  83 VRB6      29.85S
PORT HURON     DRIZZLE   45  43  93 S12       29.94S
TRI CITIES     CLOUDY    50  45  83 S13       29.85S
YPSILANTI      LGT RAIN  48  43  82 S10       29.95R
$$
MIZ043>046-050>051-056>058-064>065-071>073-077>080-231600-
SOUTHWEST LOWER MICHIGAN

CITY           SKY/WX    TMP DP  RH WIND       PRES   REMARKS
BATTLE CREEK   LGT RAIN  49  44  83 S14       29.85S
BENTON HARBOR  CLOUDY    50  44  80 S12       29.79F
BIG RAPIDS     CLOUDY    45  45 100 S5        29.80R
COLDWATER      CLOUDY    48  45  87 S6        29.86F
HOLLAND        CLOUDY    51  45  79 S12       29.79F
GRAND RAPIDS   LGT RAIN  48  44  86 S13G23    29.82R FOG
KALAMAZOO      CLOUDY    48  43  82 S12       29.85S
MARSHALL       CLOUDY    47  44  90 S14G20    29.86F
MUSKEGON       CLOUDY    53  42  66 S18G29    29.77F
$$
MIZ016>042-231600-
NORTHERN LOWER MICHIGAN

CITY           SKY/WX    TMP DP  RH WIND       PRES   REMARKS
ALPENA         CLOUDY    45  44  97 S12       29.78F FOG
BEAVER ISLAND  CLOUDY    47  46  97 S10G21    29.68S FOG
BELLAIRE       CLOUDY    45  43  94 S8        29.73F FOG
CADILLAC       CLOUDY    43  43 100 S12       29.76R FOG
CHARLEVOIX     CLOUDY    46  46 100 S12G17    29.74S FOG
FRANKFORT      CLOUDY    47  47  98 S10       29.71F FOG
GAYLORD        FOG       42  42 100 S8        29.73S VSB 1/4
GRAYLING       FOG       44  44 100 S7        29.77R VSB 1
HARBOR SPRINGS CLOUDY    45  44  97 S5        29.72F FOG
HOUGHTON LAKE  CLOUDY    44  44 100 S9        29.79R FOG
MANISTEE       CLOUDY    46  45  93 S10       29.75R
OSCODA         CLOUDY    46  45  97 S9G16     29.82S FOG
PELLSTON       FOG       40  39  97 SE7       29.72F VSB<1/4
TRAVERSE CITY  CLOUDY    48  44  86 S10G18    29.70F
$$
MIZ007>008-015-231600-
EASTERN UPPER MICHIGAN

CITY           SKY/WX    TMP DP  RH WIND       PRES   REMARKS
KINROSS        CLOUDY    39  37  93 SE9       29.71S VSB<1/4
MACKINAC ISLAN FOG       42  42 100 S10G16    29.71S VSB 3/4
NEWBERRY       FOG       40  40 100 S8        29.66S VSB 1/4
S. S. MARIE    LGT RAIN  38  37  97 E7        29.71F VSB 1/4
$$
MIZ004>006-011>014-085-231600-
CENTRAL UPPER MICHIGAN

CITY           SKY/WX    TMP DP  RH WIND       PRES   REMARKS
MANISTIQUE     DRZL/FOG  41  41 100 SW9G20    29.64S VSB<1/4
ESCANABA       CLOUDY    43  41  93 S12       29.62R VSB 1
MENOMINEE      CLOUDY    45  43  93 S9G16     29.63R
SAWYER-GWINN   FOG       41  39  93 S14       29.56S VSB 1/16
$$
MIZ001>003-009>011-084-231600-
WESTERN UPPER MICHIGAN

CITY           SKY/WX    TMP DP  RH WIND       PRES   REMARKS
IRON MOUNTAIN  FOG       41  40  96 SE7       29.56S VSB<1/4
HOUGHTON       CLOUDY    40  37  89 S10       29.48F FOG
COPPER HARBOR    N/A     42  39  89 SW7G18    29.49F
IRONWOOD       CLOUDY    45  45 100 SW10G23   29.43R
$$

ABBREVIATIONS USED IN REMARKS
   TC - TEMPERATURE IN CELSIUS
  WCI - WIND CHILL INDEX
   HX - HEAT INDEX
  VSB - VISIBILITY




USA.gov is the U.S. government's official web portal to all federal, state and local government web resources and services.